{"data":{"norad_id":65994,"epoch":"2026-09-20T14:24:01.657152Z","epoch_age_seconds":131785,"freshness":"FRESH","line1":"1 65994U 25230W   26263.60001918  .00000128  00000+0  11593-3 0  9991","line2":"2 65994  81.2993 124.8698 0000734  36.3703 323.7500 13.78099917 46915","mean_motion":13.78099917,"eccentricity":7.34e-5,"inclination_deg":81.2993,"raan_deg":124.8698,"arg_perigee_deg":36.3703,"mean_anomaly_deg":323.75,"bstar":0.00011593,"rev_number":4691,"period_min":104.49169775257,"perigee_km":970.0944203022,"apogee_km":971.17321985859,"semimajor_km":7348.7708200804,"source":"CELESTRAK","updated_at":"2026-09-21T09:00:15.691860Z"}}